period_start,C,m1,H,J0,J1,J2,J3,J4,J5,JA,JB,JC,JD,JJ,JK,JN,#
2013-11-08 00:00:48,0.00,1.45,0.00,21.69,23.14,26.00,5.98,30.50,1023.94,2060.92,2925.98,2979.01,3174.91,350.44,328.00,24.82,0000 0000 0000 0000 000000
2013-11-08 00:01:48,0.01,1.45,0.00,21.68,23.15,25.97,5.93,30.50,1023.94,2060.94,2925.72,2979.00,3174.74,349.64,327.43,24.83,0000 0000 0000 0000 000000
2013-11-08 00:02:48,0.10,1.45,0.00,21.66,23.15,25.99,6.06,30.67,1023.94,2060.92,2925.31,2979.00,3174.36,349.76,327.56,24.83,0000 0000 0000 0000 000000
2013-11-08 00:03:48,0.09,1.45,0.00,21.69,23.15,25.98,6.12,30.71,1023.94,2060.93,2925.11,2979.00,3174.16,350.22,327.96,24.84,0000 0000 0000 0000 000000
2013-11-08 00:04:48,0.07,1.45,0.00,21.68,23.15,25.95,5.97,30.54,1023.94,2060.97,2925.04,2979.00,3174.07,351.01,328.65,24.84,0000 0000 0000 0000 000000
2013-11-08 00:05:49,0.05,1.45,0.00,21.66,23.15,25.94,6.05,30.67,1023.94,2060.97,2925.01,2979.00,3174.04,350.50,328.25,24.85,0000 0000 0000 0000 000000
2013-11-08 00:06:49,0.01,1.45,0.00,21.66,23.15,25.97,6.10,30.46,1023.94,2060.96,2925.00,2979.00,3174.03,350.46,328.38,24.86,0000 0000 0000 0000 000000
2013-11-08 00:07:49,-0.01,1.45,0.00,21.68,23.15,25.99,6.07,30.58,1023.94,2060.93,2924.98,2979.00,3174.01,350.04,328.06,24.86,0000 0000 0000 0000 000000
2013-11-08 00:08:49,-0.00,1.45,0.00,21.69,23.15,25.94,6.00,31.04,1023.94,2060.94,2924.80,2978.99,3174.00,349.74,327.65,24.87,0000 0000 0000 0000 000000
2013-11-08 00:09:50,0.04,1.45,0.00,21.70,23.15,25.92,5.95,30.29,1023.94,2060.94,2924.42,2978.97,3174.00,349.22,327.02,24.87,0000 0000 0000 0000 000000
2013-11-08 00:10:50,0.06,1.45,0.00,21.69,23.16,25.94,6.05,30.25,1023.94,2060.95,2924.18,2978.92,3174.00,349.94,327.24,24.88,0000 0000 0000 0000 000000
2013-11-08 00:11:50,0.04,1.45,0.00,21.70,23.15,25.97,5.95,30.67,1023.94,2060.96,2924.07,2978.92,3174.00,349.63,327.39,24.89,0000 0000 0000 0000 000000
2013-11-08 00:12:50,0.03,1.45,0.00,21.71,23.16,25.97,5.90,30.33,1023.94,2060.97,2924.02,2978.89,3173.97,350.29,327.99,24.89,0000 0000 0000 0000 000000
2013-11-08 00:13:51,0.01,1.45,0.00,21.72,23.16,25.95,5.79,30.63,1023.94,2060.94,2923.97,2978.77,3173.85,349.14,326.69,24.90,0000 0000 0000 0000 000000
2013-11-08 00:14:51,0.04,1.45,0.00,21.71,23.16,25.94,5.97,30.54,1023.94,2060.95,2923.88,2978.47,3173.46,349.84,328.03,24.90,0000 0000 0000 0000 000000
2013-11-08 00:15:51,0.15,1.45,0.00,21.70,23.16,25.97,6.11,30.71,1023.94,2060.94,2923.59,2978.28,3173.19,350.76,328.33,24.91,0000 0000 0000 0000 000000
2013-11-08 00:16:52,0.12,1.45,0.00,21.70,23.17,25.95,5.87,30.29,1023.94,2060.93,2923.29,2978.16,3173.08,350.36,327.88,24.92,0000 0000 0000 0000 000000
2013-11-08 00:17:52,0.09,1.45,0.00,21.68,23.17,25.99,6.08,30.67,1023.93,2060.93,2923.10,2978.08,3173.03,349.47,327.33,24.92,0000 0000 0000 0000 000000
2013-11-08 00:18:52,0.05,1.45,0.00,21.67,23.17,25.95,6.08,30.83,1023.94,2060.87,2923.03,2978.05,3173.02,349.21,327.35,24.93,0000 0000 0000 0000 000000
2013-11-08 00:19:53,-0.01,1.45,0.00,21.68,23.17,25.97,5.92,30.33,1023.94,2060.87,2922.99,2978.02,3173.00,349.56,327.35,24.93,0000 0000 0000 0000 000000
2013-11-08 00:20:53,0.01,1.45,0.00,21.69,23.17,25.96,6.07,30.88,1023.94,2060.91,2922.96,2978.01,3173.00,350.53,328.24,24.94,0000 0000 0000 0000 000000
2013-11-08 00:21:53,0.01,1.45,0.00,21.71,23.17,25.95,6.02,30.63,1023.94,2060.94,2922.80,2978.01,3173.00,349.84,327.58,24.94,0000 0000 0000 0000 000000
2013-11-08 00:22:53,0.06,1.45,0.00,21.71,23.17,26.03,6.02,31.00,1023.90,2060.97,2922.41,2978.00,3172.99,349.52,327.27,24.95,0000 0000 0000 0000 000000
2013-11-08 00:23:54,0.10,1.45,0.00,21.71,23.17,25.98,6.05,30.42,1023.91,2060.97,2922.16,2978.00,3172.97,349.42,327.16,24.96,0000 0000 0000 0000 000000
2013-11-08 00:24:54,0.02,1.45,0.00,21.70,23.17,25.98,6.13,30.96,1023.93,2060.95,2922.06,2978.00,3172.95,350.46,327.83,24.96,0000 0000 0000 0000 000000
2013-11-08 00:25:54,0.02,1.45,0.00,21.73,23.17,25.96,6.02,30.71,1023.90,2060.93,2922.00,2977.99,3172.72,350.84,328.48,24.97,0000 0000 0000 0000 000000
2013-11-08 00:26:54,0.01,1.45,0.00,21.71,23.17,25.97,5.95,30.75,1023.83,2060.86,2921.97,2977.96,3172.37,350.00,327.32,24.97,0000 0000 0000 0000 000000
2013-11-08 00:27:55,-0.02,1.45,0.00,21.69,23.17,25.94,5.88,31.04,1023.77,2060.78,2921.77,2977.97,3172.17,350.61,328.90,24.98,0000 0000 0000 0000 000000
2013-11-08 00:28:55,0.00,1.45,0.00,21.69,23.17,25.96,5.97,30.54,1023.69,2060.82,2921.41,2977.97,3172.09,349.74,327.54,24.99,0000 0000 0000 0000 000000
2013-11-08 00:29:55,0.14,1.45,0.00,21.68,23.17,25.97,5.96,31.04,1023.67,2060.76,2921.16,2977.82,3172.03,349.69,327.38,24.99,0000 0000 0000 0000 000000
2013-11-08 00:30:55,0.01,1.45,0.00,21.69,23.17,25.97,5.86,30.67,1023.64,2060.66,2921.05,2977.55,3172.01,349.18,326.70,25.00,0000 0000 0000 0000 000000
2013-11-08 00:31:55,0.01,1.45,0.00,21.68,23.17,25.98,6.22,31.21,1023.60,2060.66,2921.02,2977.36,3172.00,351.30,329.08,25.00,0000 0000 0000 0000 000000
2013-11-08 00:32:56,0.06,1.46,0.00,21.67,23.17,25.97,5.98,30.83,1023.56,2060.72,2921.00,2977.22,3172.00,349.31,326.38,25.01,0000 0000 0000 0000 000000
2013-11-08 00:33:56,0.08,1.46,0.00,21.64,23.17,25.97,5.88,30.54,1023.49,2060.57,2920.89,2977.09,3172.00,348.88,327.31,25.01,0000 0000 0000 0000 000000
2013-11-08 00:34:56,-0.13,1.45,0.00,21.64,23.17,26.02,6.02,30.71,1023.51,2060.65,2920.59,2977.07,3171.99,349.90,327.72,25.02,0000 0000 0000 0000 000000
2013-11-08 00:35:56,0.17,1.46,0.00,21.67,23.17,26.01,6.09,31.00,1023.49,2060.72,2920.27,2977.06,3171.90,349.50,327.68,25.03,0000 0000 0000 0000 000000
2013-11-08 00:36:57,0.10,1.46,0.00,21.68,23.17,26.00,6.00,30.88,1023.48,2060.66,2920.09,2977.03,3171.73,350.84,328.67,25.03,0000 0000 0000 0000 000000
2013-11-08 00:37:57,0.03,1.46,0.00,21.73,23.17,25.99,5.85,30.33,1023.47,2060.70,2920.03,2977.02,3171.50,349.55,327.01,25.04,0000 0000 0000 0000 000000
2013-11-08 00:38:57,0.07,1.46,0.00,21.73,23.18,25.96,6.01,30.75,1023.47,2060.66,2920.00,2977.00,3171.23,348.95,326.57,25.04,0000 0000 0000 0000 000000
2013-11-08 00:39:57,-0.01,1.46,0.00,21.72,23.18,25.96,5.92,31.13,1023.48,2060.59,2919.97,2977.00,3171.09,350.23,327.79,25.05,0000 0000 0000 0000 000000
2013-11-08 00:42:04,-0.08,1.46,0.00,21.70,23.19,26.04,5.83,30.75,1023.53,2060.44,2919.51,2977.00,3171.01,348.79,326.47,25.06,0000 0000 0000 0000 000000
2013-11-08 00:43:04,0.06,1.46,0.00,21.59,23.19,26.00,6.05,31.08,1023.48,2060.33,2919.20,2976.99,3171.00,349.81,327.52,25.07,0000 0000 0000 0000 000000
2013-11-08 00:44:04,-0.02,1.46,0.00,21.62,23.19,25.98,6.24,31.54,1023.47,2060.25,2919.07,2976.96,3171.00,351.63,329.21,25.07,0000 0000 0000 0000 000000
2013-11-08 00:45:04,-0.04,1.46,0.00,21.63,23.19,26.02,5.80,31.00,1023.49,2060.17,2919.03,2976.94,3170.99,348.94,326.69,25.08,0000 0000 0000 0000 000000
2013-11-08 00:46:05,-0.05,1.46,0.00,21.62,23.19,26.06,6.07,30.75,1023.53,2060.18,2919.00,2976.87,3170.96,349.57,327.51,25.09,0000 0000 0000 0000 000000
2013-11-08 00:47:05,0.05,1.46,0.00,21.63,23.19,25.99,6.04,30.88,1023.54,2060.29,2919.00,2976.89,3170.89,349.15,327.31,25.09,0000 0000 0000 0000 000000
2013-11-08 00:48:05,0.12,1.46,0.00,21.64,23.19,26.00,5.87,30.58,1023.53,2060.23,2918.99,2976.79,3170.51,349.32,327.03,25.10,0000 0000 0000 0000 000000
2013-11-08 00:49:05,0.01,1.46,0.00,21.67,23.19,26.00,6.02,30.75,1023.51,2060.16,2918.78,2976.59,3170.23,350.23,327.86,25.10,0000 0000 0000 0000 000000
2013-11-08 00:50:06,0.07,1.46,0.00,21.67,23.19,26.00,5.95,30.79,1023.50,2060.14,2918.44,2976.42,3170.11,349.67,327.50,25.11,0000 0000 0000 0000 000000
2013-11-08 00:51:06,0.10,1.46,0.00,21.66,23.19,26.01,6.02,31.08,1023.50,2060.20,2918.19,2976.23,3170.04,350.86,328.29,25.11,0000 0000 0000 0000 000000
2013-11-08 00:52:06,0.13,1.46,0.00,21.64,23.19,26.01,6.05,31.21,1023.47,2060.20,2918.08,2976.12,3170.01,350.19,327.83,25.12,0000 0000 0000 0000 000000
2013-11-08 00:53:06,0.03,1.46,0.00,21.65,23.19,26.00,5.94,30.83,1023.47,2060.20,2918.03,2976.07,3170.00,349.77,327.50,25.13,0000 0000 0000 0000 000000
2013-11-08 00:54:07,0.03,1.46,0.00,21.67,23.19,25.99,6.02,30.75,1023.48,2060.27,2918.00,2976.03,3170.00,349.42,326.84,25.13,0000 0000 0000 0000 000000
2013-11-08 00:55:07,0.03,1.46,0.00,21.68,23.19,25.98,6.06,30.88,1023.49,2060.21,2917.93,2976.01,3169.99,350.38,327.96,25.14,0000 0000 0000 0000 000000
2013-11-08 00:56:07,-0.02,1.46,0.00,21.69,23.19,26.03,5.96,30.13,1023.51,2060.15,2917.77,2976.00,3169.98,350.18,327.55,25.14,0000 0000 0000 0000 000000
2013-11-08 00:57:07,0.00,1.46,0.00,21.70,23.19,26.03,5.99,30.13,1023.52,2060.12,2917.45,2976.00,3169.96,348.97,326.87,25.15,0000 0000 0000 0000 000000
2013-11-08 00:58:07,0.02,1.46,0.00,21.72,23.19,26.04,6.03,30.46,1023.47,2060.13,2917.18,2976.00,3169.89,350.62,328.15,25.16,0000 0000 0000 0000 000000
2013-11-08 00:59:08,0.08,1.46,0.00,21.72,23.20,26.08,5.98,30.33,1023.48,2060.15,2917.08,2976.00,3169.74,348.69,326.34,25.16,0000 0000 0000 0000 000000
2013-11-08 01:00:08,0.04,1.46,0.00,21.72,23.20,26.03,6.03,30.25,1023.49,2060.17,2917.03,2976.00,3169.51,350.29,327.84,25.17,0000 0000 0000 0000 000000
2013-11-08 01:01:08,0.04,1.46,0.00,21.71,23.20,26.02,5.86,30.13,1023.48,2060.12,2917.00,2975.99,3169.22,349.31,326.94,25.17,0000 0000 0000 0000 000000
2013-11-08 01:02:08,0.01,1.46,0.00,21.70,23.20,26.01,6.09,30.58,1023.50,2060.07,2916.96,2975.98,3169.11,349.80,327.41,25.18,0000 0000 0000 0000 000000
2013-11-08 01:03:09,-0.01,1.46,0.00,21.70,23.20,26.03,5.94,30.46,1023.48,2060.09,2916.91,2975.99,3169.05,349.38,327.01,25.18,0000 0000 0000 0000 000000
2013-11-08 01:04:09,0.01,1.46,0.00,21.69,23.20,26.03,6.06,31.17,1023.47,2060.11,2916.60,2975.98,3169.01,350.41,327.98,25.19,0000 0000 0000 0000 000000
2013-11-08 01:05:09,0.07,1.46,0.00,21.70,23.20,26.04,5.99,30.54,1023.47,2060.09,2916.25,2975.97,3169.00,348.98,326.68,25.20,0000 0000 0000 0000 000000
2013-11-08 01:06:09,0.05,1.46,0.00,21.68,23.20,26.01,5.96,30.58,1023.45,2060.06,2916.09,2975.85,3169.00,349.82,326.99,25.20,0000 0000 0000 0000 000000
2013-11-08 01:07:09,0.02,1.46,0.00,21.67,23.20,25.99,6.01,30.92,1023.46,2060.04,2916.03,2975.59,3169.00,350.41,328.36,25.21,0000 0000 0000 0000 000000
2013-11-08 01:08:10,0.06,1.46,0.00,21.68,23.20,26.01,6.12,30.92,1023.46,2060.03,2916.00,2975.31,3168.94,350.40,327.88,25.21,0000 0000 0000 0000 000000
2013-11-08 01:09:10,0.08,1.46,0.00,21.69,23.20,26.03,6.16,31.04,1023.45,2060.04,2915.94,2975.17,3168.92,351.04,328.57,25.22,0000 0000 0000 0000 000000
2013-11-08 01:10:10,0.05,1.46,0.00,21.70,23.20,26.01,6.08,30.88,1023.45,2060.04,2915.76,2975.07,3168.79,350.26,327.83,25.23,0000 0000 0000 0000 000000
2013-11-08 01:11:11,0.07,1.46,0.00,21.72,23.20,25.99,5.94,30.75,1023.45,2060.04,2915.43,2975.05,3168.47,349.40,327.00,25.23,0000 0000 0000 0000 000000
2013-11-08 01:12:11,0.10,1.46,0.00,21.73,23.20,25.97,5.92,30.46,1023.45,2060.05,2915.17,2975.04,3168.31,349.89,327.45,25.24,0000 0000 0000 0000 000000
2013-11-08 01:13:11,0.05,1.46,0.00,21.72,23.21,26.00,6.05,31.13,1023.45,2060.04,2915.06,2975.02,3168.13,349.66,327.51,25.24,0000 0000 0000 0000 000000
2013-11-08 01:14:11,0.04,1.46,0.00,21.72,23.21,26.05,5.86,31.04,1023.45,2060.03,2915.02,2975.00,3168.06,349.24,327.26,25.25,0000 0000 0000 0000 000000
2013-11-08 01:15:12,0.01,1.46,0.00,21.68,23.21,26.03,5.98,30.67,1023.45,2060.02,2915.00,2975.00,3168.02,349.23,327.23,25.26,0000 0000 0000 0000 000000
2013-11-08 01:16:12,0.01,1.46,0.00,21.68,23.21,26.00,6.06,30.92,1023.47,2060.05,2914.91,2974.99,3168.00,350.29,327.55,25.26,0000 0000 0000 0000 000000
2013-11-08 01:17:12,0.04,1.46,0.00,21.67,23.21,25.98,6.08,30.92,1023.46,2060.03,2914.64,2974.96,3168.00,350.14,327.85,25.27,0000 0000 0000 0000 000000
2013-11-08 01:18:12,0.02,1.46,0.00,21.68,23.21,26.01,5.99,30.79,1023.46,2060.01,2914.31,2974.98,3167.98,349.10,326.52,25.27,0000 0000 0000 0000 000000
2013-11-08 01:19:13,0.03,1.47,0.00,21.66,23.22,26.00,6.01,30.83,1023.46,2060.01,2914.13,2974.97,3167.99,350.30,327.61,25.28,0000 0000 0000 0000 000000
2013-11-08 01:20:13,0.03,1.47,0.00,21.67,23.22,25.98,6.02,30.71,1023.46,2060.05,2914.05,2974.95,3167.95,349.25,326.92,25.28,0000 0000 0000 0000 000000
2013-11-08 01:21:13,0.05,1.47,0.00,21.68,23.22,26.00,6.00,31.04,1023.45,2060.04,2914.01,2974.82,3167.93,350.15,327.74,25.29,0000 0000 0000 0000 000000
2013-11-08 01:22:13,0.04,1.47,0.00,21.71,23.22,26.02,5.93,30.54,1023.45,2060.04,2913.99,2974.61,3167.79,349.28,326.90,25.30,0000 0000 0000 0000 000000
2013-11-08 01:23:14,0.09,1.47,0.00,21.72,23.22,25.98,6.11,30.54,1023.45,2060.02,2913.88,2974.39,3167.53,350.56,328.09,25.30,0000 0000 0000 0000 000000
2013-11-08 01:24:14,0.09,1.47,0.00,21.76,23.22,26.00,6.02,30.75,1023.45,2060.02,2913.70,2974.26,3167.30,349.41,326.97,25.31,0000 0000 0000 0000 000000
2013-11-08 01:25:14,0.10,1.47,0.00,21.76,23.22,26.01,5.93,30.42,1023.45,2060.02,2913.37,2974.15,3167.13,349.76,327.71,25.31,0000 0000 0000 0000 000000
2013-11-08 01:26:15,0.09,1.47,0.00,21.75,23.22,25.99,6.07,30.54,1023.45,2060.01,2913.17,2974.07,3167.05,350.22,327.66,25.32,0000 0000 0000 0000 000000
2013-11-08 01:27:15,0.04,1.47,0.00,21.73,23.22,26.03,6.03,30.67,1023.45,2060.01,2913.07,2974.05,3167.03,349.07,327.36,25.33,0000 0000 0000 0000 000000
2013-11-08 01:28:15,0.01,1.47,0.00,21.72,23.22,26.02,6.12,30.71,1023.45,2060.03,2913.02,2974.04,3167.00,350.01,327.57,25.33,0000 0000 0000 0000 000000
2013-11-08 01:29:15,0.02,1.47,0.00,21.69,23.22,25.99,5.99,30.75,1023.45,2060.03,2913.00,2974.01,3167.00,350.03,327.37,25.34,0000 0000 0000 0000 000000
2013-11-08 01:30:16,0.01,1.47,0.00,21.68,23.22,25.98,6.02,30.96,1023.45,2060.03,2912.97,2974.00,3167.00,350.38,327.97,25.34,0000 0000 0000 0000 000000
2013-11-08 01:31:16,0.02,1.47,0.00,21.70,23.22,26.03,6.06,30.54,1023.45,2060.06,2912.83,2974.00,3167.00,349.79,327.39,25.35,0000 0000 0000 0000 000000
2013-11-08 01:32:16,0.05,1.47,0.00,21.69,23.22,26.07,6.02,30.79,1023.45,2060.04,2912.42,2973.99,3166.94,349.72,327.75,25.35,0000 0000 0000 0000 000000
2013-11-08 01:33:16,0.05,1.47,0.00,21.70,23.22,26.01,6.02,30.71,1023.45,2060.04,2912.24,2973.99,3166.77,350.11,327.58,25.36,0000 0000 0000 0000 000000
2013-11-08 01:34:16,0.06,1.47,0.00,21.68,23.22,26.09,6.00,30.63,1023.45,2060.04,2912.11,2973.99,3166.52,349.04,327.22,25.37,0000 0000 0000 0000 000000
2013-11-08 01:35:17,0.05,1.47,0.00,21.71,23.22,26.00,6.06,30.54,1023.45,2060.02,2912.04,2973.98,3166.24,349.65,326.78,25.37,0000 0000 0000 0000 000000
2013-11-08 01:36:17,0.03,1.47,0.00,21.74,23.22,25.97,5.95,30.58,1023.45,2060.02,2912.01,2973.95,3166.08,350.34,327.86,25.38,0000 0000 0000 0000 000000
2013-11-08 01:37:17,0.03,1.47,0.00,21.76,23.22,25.99,6.00,30.33,1023.45,2060.02,2912.00,2973.93,3166.03,349.60,327.60,25.38,0000 0000 0000 0000 000000
2013-11-08 01:38:17,0.01,1.47,0.00,21.76,23.22,26.03,5.98,30.63,1023.45,2060.01,2911.99,2973.91,3166.01,349.45,327.57,25.39,0000 0000 0000 0000 000000
2013-11-08 01:39:17,0.01,1.47,0.00,21.76,23.22,26.00,6.04,30.46,1023.45,2060.02,2911.96,2973.86,3166.00,349.99,327.18,25.40,0000 0000 0000 0000 000000
2013-11-08 01:40:18,0.02,1.47,0.00,21.77,23.22,26.05,5.98,29.92,1023.45,2060.02,2911.75,2973.62,3165.97,350.14,327.32,25.40,0000 0000 0000 0000 000000
2013-11-08 01:41:18,0.10,1.47,0.00,21.74,23.22,26.01,5.92,30.42,1023.45,2060.02,2911.39,2973.33,3165.97,348.65,326.26,25.41,0000 0000 0000 0000 000000
2013-11-08 01:42:18,0.12,1.47,0.00,21.73,23.22,25.97,6.03,30.92,1023.45,2060.01,2911.16,2973.18,3165.93,350.69,328.20,25.41,0000 0000 0000 0000 000000
2013-11-08 01:43:18,0.07,1.47,0.00,21.71,23.22,25.97,6.04,30.67,1023.45,2060.00,2911.05,2973.08,3165.72,350.61,327.83,25.42,0000 0000 0000 0000 000000
2013-11-08 01:44:19,0.07,1.47,0.00,21.71,23.22,25.99,5.93,30.08,1023.45,2060.00,2911.00,2973.04,3165.38,349.51,327.11,25.43,0000 0000 0000 0000 000000
2013-11-08 01:45:19,0.06,1.47,0.00,21.71,23.22,26.01,6.19,30.79,1023.45,2060.01,2910.99,2973.02,3165.16,350.37,327.92,25.43,0000 0000 0000 0000 000000
2013-11-08 01:46:19,0.03,1.47,0.00,21.75,23.23,26.04,5.98,30.58,1023.45,2060.00,2910.95,2973.01,3165.07,349.92,327.45,25.44,0000 0000 0000 0000 000000
2013-11-08 01:47:19,0.03,1.47,0.00,21.75,23.23,25.99,6.04,30.21,1023.45,2060.00,2910.64,2973.00,3165.03,350.69,328.06,25.44,0000 0000 0000 0000 000000
2013-11-08 01:48:20,0.05,1.47,0.00,21.76,23.24,25.98,6.07,30.92,1023.45,2060.00,2910.25,2973.00,3165.01,350.93,328.50,25.45,0000 0000 0000 0000 000000
2013-11-08 01:49:20,0.05,1.47,0.00,21.79,23.24,26.00,6.05,30.50,1023.45,2060.00,2910.08,2973.00,3165.00,349.89,327.59,25.45,0000 0000 0000 0000 000000
2013-11-08 01:50:20,0.02,1.47,0.00,21.81,23.24,26.01,5.99,30.71,1023.45,2060.00,2910.03,2973.00,3165.00,350.11,327.34,25.46,0000 0000 0000 0000 000000
2013-11-08 01:51:20,0.01,1.47,0.00,21.81,23.24,26.07,6.12,30.58,1023.45,2060.00,2909.99,2973.00,3165.00,349.96,327.47,25.47,0000 0000 0000 0000 000000
2013-11-08 01:52:21,0.00,1.47,0.00,21.81,23.24,26.00,6.11,30.46,1023.44,2060.00,2909.84,2972.99,3164.98,350.71,327.98,25.47,0000 0000 0000 0000 000000
2013-11-08 01:53:21,0.03,1.47,0.00,21.78,23.24,26.01,6.02,30.13,1023.44,2060.00,2909.48,2972.95,3164.98,350.15,327.88,25.48,0000 0000 0000 0000 000000
2013-11-08 01:54:21,0.07,1.48,0.00,21.77,23.24,26.02,6.07,30.71,1023.43,2060.00,2909.19,2972.78,3164.91,350.44,327.91,25.48,0000 0000 0000 0000 000000
2013-11-08 01:55:22,0.08,1.48,0.00,21.77,23.24,26.06,5.93,30.08,1023.44,2060.00,2909.07,2972.58,3164.75,350.54,328.08,25.49,0000 0000 0000 0000 000000
2013-11-08 01:56:22,0.09,1.48,0.00,21.76,23.24,26.06,6.06,30.54,1023.45,2060.00,2909.02,2972.33,3164.45,349.70,327.31,25.50,0000 0000 0000 0000 000000
2013-11-08 01:57:22,0.10,1.48,0.00,21.78,23.24,26.02,6.12,30.29,1023.45,2060.00,2909.00,2972.20,3164.20,350.09,327.26,25.50,0000 0000 0000 0000 000000
2013-11-08 01:58:23,0.07,1.48,0.00,21.77,23.24,26.04,5.92,30.21,1023.45,2060.00,2908.99,2972.13,3164.09,349.95,327.51,25.51,0000 0000 0000 0000 000000
2013-11-08 01:59:23,0.03,1.48,0.00,21.75,23.24,26.04,5.94,30.21,1023.45,2060.00,2908.98,2972.09,3164.03,349.20,326.78,25.51,0000 0000 0000 0000 000000
2013-11-08 02:00:23,0.03,1.48,0.00,21.77,23.25,26.04,6.08,30.67,1023.45,2060.00,2908.94,2972.04,3164.01,350.04,327.54,25.52,0000 0000 0000 0000 000000
2013-11-08 02:01:23,0.03,1.48,0.00,21.78,23.25,26.03,5.88,30.67,1023.45,2060.00,2908.54,2972.03,3164.00,349.87,327.37,25.52,0000 0000 0000 0000 000000
2013-11-08 02:02:24,0.06,1.48,0.00,21.80,23.25,26.01,5.99,30.29,1023.45,2060.00,2908.22,2972.01,3164.00,349.94,327.41,25.53,0000 0000 0000 0000 000000
2013-11-08 02:03:24,0.05,1.48,0.00,21.83,23.25,26.05,6.05,30.88,1023.45,2060.00,2908.08,2972.00,3164.00,350.71,328.10,25.54,0000 0000 0000 0000 000000
2013-11-08 02:04:24,0.02,1.48,0.00,21.83,23.25,26.01,5.96,30.54,1023.45,2060.00,2908.03,2972.00,3164.00,349.68,327.22,25.54,0000 0000 0000 0000 000000
2013-11-08 02:05:24,0.01,1.48,0.00,21.83,23.25,26.06,6.04,30.58,1023.45,2060.00,2908.01,2972.00,3163.97,349.98,326.88,25.55,0000 0000 0000 0000 000000
2013-11-08 02:06:25,0.01,1.48,0.00,21.83,23.25,26.02,6.11,30.58,1023.45,2060.00,2908.00,2971.99,3163.90,350.82,328.16,25.55,0000 0000 0000 0000 000000
2013-11-08 02:07:25,0.01,1.48,0.00,21.83,23.25,26.06,6.13,30.96,1023.45,2060.00,2907.88,2971.99,3163.71,351.26,328.63,25.56,0000 0000 0000 0000 000000
2013-11-08 02:08:25,0.07,1.48,0.00,21.82,23.25,26.06,5.81,30.75,1023.45,2060.00,2907.40,2971.99,3163.34,349.15,326.65,25.57,0000 0000 0000 0000 000000
2013-11-08 02:09:26,0.11,1.48,0.00,21.81,23.25,26.06,6.07,30.67,1023.45,2060.00,2907.15,2971.97,3163.16,349.68,327.16,25.57,0000 0000 0000 0000 000000
2013-11-08 02:10:26,0.06,1.48,0.00,21.82,23.26,26.09,5.94,30.67,1023.45,2060.00,2907.05,2971.92,3163.07,349.34,327.61,25.58,0000 0000 0000 0000 000000
2013-11-08 02:11:26,0.04,1.48,0.00,21.78,23.27,26.05,5.87,30.88,1023.45,2060.00,2907.03,2971.78,3163.04,349.15,326.75,25.58,0000 0000 0000 0000 000000
2013-11-08 02:12:26,0.06,1.48,0.00,21.77,23.27,26.11,6.06,30.67,1023.45,2060.00,2907.00,2971.54,3163.01,349.72,327.25,25.59,0000 0000 0000 0000 000000
2013-11-08 02:13:26,0.06,1.48,0.00,21.79,23.27,26.10,6.08,30.63,1023.45,2060.00,2906.95,2971.34,3163.00,350.87,327.72,25.60,0000 0000 0000 0000 000000
2013-11-08 02:14:27,0.05,1.48,0.00,21.81,23.27,26.06,5.98,31.17,1023.45,2060.00,2906.83,2971.21,3163.00,349.16,327.07,25.60,0000 0000 0000 0000 000000
2013-11-08 02:15:27,0.06,1.48,0.00,21.82,23.27,26.06,6.12,31.08,1023.44,2060.00,2906.46,2971.11,3162.98,349.97,327.68,25.61,0000 0000 0000 0000 000000
2013-11-08 02:16:27,0.07,1.48,0.00,21.83,23.27,26.05,5.84,30.63,1023.45,2060.00,2906.18,2971.05,3162.97,349.39,326.69,25.61,0000 0000 0000 0000 000000
2013-11-08 02:17:27,0.05,1.48,0.00,21.84,23.27,26.07,6.09,30.63,1023.45,2060.00,2906.07,2971.03,3162.97,350.94,328.08,25.62,0000 0000 0000 0000 000000
2013-11-08 02:18:28,0.02,1.48,0.00,21.84,23.27,26.05,6.24,30.83,1023.45,2060.00,2906.01,2971.01,3162.77,350.03,327.63,25.62,0000 0000 0000 0000 000000
2013-11-08 02:19:28,0.04,1.48,0.00,21.84,23.27,26.14,5.99,30.63,1023.44,2060.00,2905.97,2971.00,3162.43,350.32,327.71,25.63,0000 0000 0000 0000 000000
2013-11-08 02:20:28,0.06,1.48,0.00,21.81,23.27,26.06,6.14,30.96,1023.44,2060.00,2905.69,2971.00,3162.19,350.36,327.80,25.64,0000 0000 0000 0000 000000
2013-11-08 02:21:28,0.07,1.48,0.00,21.79,23.27,26.09,6.12,30.79,1023.43,2060.00,2905.28,2971.00,3162.08,349.75,326.84,25.64,0000 0000 0000 0000 000000
2013-11-08 02:22:29,0.06,1.48,0.00,21.82,23.27,26.07,5.97,30.21,1023.42,2060.00,2905.11,2971.00,3162.03,350.24,327.65,25.65,0000 0000 0000 0000 000000
2013-11-08 02:23:29,0.03,1.49,0.00,21.82,23.27,26.05,6.01,30.58,1023.40,2060.00,2905.04,2970.98,3162.02,349.75,327.20,25.65,0000 0000 0000 0000 000000
2013-11-08 02:24:29,0.01,1.49,0.00,21.80,23.27,26.02,5.97,30.75,1023.33,2060.00,2905.01,2970.96,3162.00,349.93,327.36,25.66,0000 0000 0000 0000 000000
2013-11-08 02:25:29,0.01,1.49,0.00,21.79,23.27,26.04,6.03,30.88,1023.36,2060.00,2905.00,2970.93,3161.99,350.03,327.78,25.67,0000 0000 0000 0000 000000
2013-11-08 02:26:29,0.02,1.49,0.00,21.81,23.27,26.08,5.94,30.67,1023.31,2060.00,2905.00,2970.83,3161.99,350.12,327.67,25.67,0000 0000 0000 0000 000000
2013-11-08 02:27:30,0.01,1.49,0.00,21.81,23.27,26.06,6.12,30.96,1023.27,2060.00,2904.96,2970.78,3161.96,349.83,327.07,25.68,0000 0000 0000 0000 000000
2013-11-08 02:28:30,0.04,1.49,0.00,21.83,23.27,26.11,6.22,31.08,1023.23,2060.00,2904.66,2970.52,3161.97,350.76,328.07,25.68,0000 0000 0000 0000 000000
2013-11-08 02:29:30,0.09,1.49,0.00,21.86,23.27,26.07,5.98,30.46,1023.34,2060.00,2904.29,2970.31,3161.89,348.83,326.70,25.69,0000 0000 0000 0000 000000
2013-11-08 02:30:31,0.11,1.49,0.00,21.86,23.28,26.08,5.94,30.42,1023.39,2060.00,2904.15,2970.19,3161.57,348.91,326.37,25.69,0000 0000 0000 0000 000000
2013-11-08 02:31:31,0.10,1.49,0.00,21.84,23.28,26.06,6.01,30.83,1023.44,2060.00,2904.07,2970.11,3161.27,349.70,327.14,25.70,0000 0000 0000 0000 000000
2013-11-08 02:32:31,0.07,1.49,0.00,21.86,23.29,26.06,6.14,30.83,1023.40,2060.00,2904.03,2970.06,3161.12,350.96,328.30,25.71,0000 0000 0000 0000 000000
2013-11-08 02:33:31,0.03,1.49,0.00,21.83,23.29,26.06,5.92,30.58,1023.39,2060.00,2904.01,2970.03,3161.06,349.73,326.74,25.71,0000 0000 0000 0000 000000
2013-11-08 02:34:32,0.01,1.49,0.00,21.80,23.29,26.10,6.02,30.67,1023.39,2060.00,2904.00,2970.02,3161.02,349.76,327.78,25.72,0000 0000 0000 0000 000000
2013-11-08 02:35:32,0.01,1.49,0.00,21.81,23.29,26.11,6.17,30.83,1023.42,2060.00,2903.96,2970.00,3161.00,350.17,327.94,25.72,0000 0000 0000 0000 000000
2013-11-08 02:36:32,0.01,1.49,0.00,21.82,23.29,26.06,6.03,30.58,1023.39,2060.00,2903.67,2970.00,3160.99,349.34,326.82,25.73,0000 0000 0000 0000 000000
2013-11-08 02:37:33,0.05,1.49,0.00,21.82,23.29,26.08,5.97,30.54,1023.28,2060.00,2903.32,2970.00,3160.99,349.56,326.79,25.74,0000 0000 0000 0000 000000